Location: Peebles
(55.6412°N, 3.1714°W)
Time: 22:00:03
(UTC+01:00)

deb AGENA D - Pass Details

Date: 12 July 2022
Orbit: 951 x 1019 km, 99.8° (Epoch: 17 August)

Event Time Altitude Azimuth Distance (km) Brightness Sun altitude
Rises 00:08:04 0° 114° (ESE) 3,757 ? -10.9°
Reaches altitude 10° 00:10:55 10° 103° (ESE) 2,806 ? -11.0°
Maximum altitude 00:16:03 27° 49° (NE) 1,835 ? -11.2°
Drops below altitude 10° 00:21:10 10° 354° (N) 2,793 ? -11.4°
Sets 00:24:00 0° 343° (NNW) 3,737 ? -11.5°
